This is the latest recevied weather packets stored in our database for station/object W1REE. If no packets are shown the sender has not sent any weather packets the latest 10 day(s).
| Time | Temp. | Humidity | Pressure | Rain* | Wind** | Luminosity | Snow |
|---|---|---|---|---|---|---|---|
| 1777835321 | 22.22° C | 16% | 1018.2 hPa | 0 mm | - | 794 W/m² | - |
| 1777835018 | 21.67° C | 15% | 1018.1 hPa | 0 mm | - | 999 W/m² | - |
| 1777834715 | 21.11° C | 15% | 1018.2 hPa | 0 mm | - | 969 W/m² | - |
| 1777834411 | 21.11° C | 16% | 1018.3 hPa | 0 mm | - | 580 W/m² | - |
| 1777834111 | 21.11° C | 15% | 1018.4 hPa | 0 mm | - | 450 W/m² | - |
| 1777833807 | 21.11° C | 14% | 1018.6 hPa | 0 mm | - | 762 W/m² | - |
| 1777833503 | 21.11° C | 15% | 1018.4 hPa | 0 mm | - | 986 W/m² | - |
| 1777833201 | 20.56° C | 15% | 1018.8 hPa | 0 mm | - | 926 W/m² | - |
| 1777832898 | 21.11° C | 13% | 1018.8 hPa | 0 mm | - | 574 W/m² | - |
| 1777832597 | 21.11° C | 14% | 1018.9 hPa | 0 mm | - | 762 W/m² | - |
| 1777832294 | 20.56° C | 16% | 1019 hPa | 0 mm | - | 782 W/m² | - |
| 1777831991 | 20.56° C | 14% | 1019.2 hPa | 0 mm | - | 813 W/m² | - |
| 1777831687 | 21.11° C | 14% | 1019.3 hPa | 0 mm | - | 880 W/m² | - |
| 1777831386 | 20° C | 14% | 1019.3 hPa | 0 mm | - | 738 W/m² | - |
| 1777831081 | 20.56° C | 16% | 1019.5 hPa | 0 mm | - | 822 W/m² | - |
| 1777830780 | 21.11° C | 13% | 1019.6 hPa | 0 mm | - | 766 W/m² | - |
| 1777830475 | 21.11° C | 14% | 1019.6 hPa | 0 mm | - | 997 W/m² | - |
| 1777830174 | 21.11° C | 14% | 1019.6 hPa | 0 mm | - | 1048 W/m² | - |
| 1777829873 | 21.11° C | 15% | 1019.6 hPa | 0 mm | - | 914 W/m² | - |
| 1777829570 | 21.67° C | 15% | 1019.9 hPa | 0 mm | - | 640 W/m² | - |
| 1777829267 | 20.56° C | 16% | 1019.9 hPa | 0 mm | - | 965 W/m² | - |
| 1777828964 | 19.44° C | 17% | 1020.1 hPa | 0 mm | - | 770 W/m² | - |
| 1777828660 | 19.44° C | 18% | 1019.9 hPa | 0 mm | - | 719 W/m² | - |
| 1777828357 | 19.44° C | 16% | 1020 hPa | 0 mm | - | 618 W/m² | - |
| 1777828054 | 19.44° C | 20% | 1020.1 hPa | 0 mm | - | 481 W/m² | - |
* Rain latest hour (hover to see other rain measurements)
** Current wind speed in m/s (hover to see current wind gust speed)